Weather History for KAQV - July, 2012

Change the Weather History Date:

Tuesday, July 31, 2012

  Actual Average (KPOE) Record (KPOE)
Temperature  
Mean Temperature 85 °F -  
Max Temperature 95 °F 91 °F 104 °F (1998)
Min Temperature 75 °F 71 °F 71 °F (2000)
Cooling Degree Days 20    
Growing Degree Days 35 (Base 50)    
Moisture  
Dew Point 73 °F    
Average Humidity 70    
Maximum Humidity 94    
Minimum Humidity 44    
Precipitation  
Precipitation 0.00 in - - ()
Sea Level Pressure  
Sea Level Pressure 29.96 in    
Wind  
Wind Speed 3 mph (WSW)    
Max Wind Speed 9 mph    
Max Gust Speed -    
Visibility 10 miles    
Events      
Averages and records for this station are not official NWS values.
T = Trace of Precipitation, MM = Missing Value Source: NWS Daily Summary

Daily Weather History Graph

Daily Weather History Graph

Search for Another Location

Airport or City:

Trip Planner

Search our weather history database for the weather conditions in past years. The results will help you decide how hot, cold, wet, or windy it might be!

Date:

Astronomy

Jul. 31, 2012 Rise Set
Actual Time 6:29 AM CDT 8:09 PM CDT
Civil Twilight 6:02 AM CDT 8:35 PM CDT
Nautical Twilight 5:31 AM CDT 9:07 PM CDT
Astronomical Twilight 4:57 AM CDT 9:40 PM CDT
Moon 6:59 PM CDT (7/31) 4:52 AM CDT (7/31)
Length of Visible Light 14h 32m
Length of Day
13h 40m
Waxing Gibbous, 97% of the Moon is Illuminated
Jul 31
Waxing Gibbous
Aug 1
Full
Aug 9
Last Quarter
Aug 17
New
Aug 24
First Quarter

Hourly Weather History & Observations

Time (CDT) Temp. Heat Index Dew Point Humidity Pressure Visibility Wind Dir Wind Speed Gust Speed Precip Events Conditions
12:56 AM 80.1 °F 85.1 °F 75.0 °F 85% 29.97 in 10.0 mi Variable 3.5 mph - N/A   Clear
1:56 AM 79.0 °F - 75.9 °F 90% 29.96 in 9.0 mi Variable 3.5 mph - N/A   Clear
2:56 AM 78.1 °F - 75.0 °F 90% 29.95 in 10.0 mi Calm Calm - N/A   Clear
3:56 AM 78.1 °F - 73.9 °F 87% 29.96 in 10.0 mi Calm Calm - N/A   Clear
4:56 AM 77.0 °F - 75.0 °F 94% 29.96 in 10.0 mi Variable 3.5 mph - N/A   Clear
5:56 AM 77.0 °F - 73.9 °F 90% 29.98 in 10.0 mi Calm Calm - N/A   Clear
6:56 AM 75.9 °F - 73.9 °F 94% 29.99 in 6.0 mi Calm Calm - N/A   Clear
7:56 AM 80.1 °F 84.5 °F 73.9 °F 81% 29.99 in 10.0 mi West 6.9 mph - N/A   Clear
8:56 AM 82.9 °F 88.8 °F 73.0 °F 72% 30.00 in 10.0 mi WSW 6.9 mph - N/A   Clear
9:56 AM 87.1 °F 94.5 °F 73.0 °F 63% 30.00 in 10.0 mi Variable 4.6 mph - N/A   Clear
10:56 AM 89.1 °F 97.0 °F 73.0 °F 59% 30.00 in 10.0 mi West 9.2 mph - N/A   Clear
11:56 AM 91.0 °F 99.3 °F 73.0 °F 55% 29.99 in 10.0 mi Variable 6.9 mph - N/A   Partly Cloudy
12:56 PM 93.0 °F 100.7 °F 72.0 °F 50% 29.98 in 10.0 mi Variable 5.8 mph - N/A   Scattered Clouds
1:56 PM 93.0 °F 100.1 °F 71.1 °F 49% 29.96 in 10.0 mi Calm Calm - N/A   Scattered Clouds
2:56 PM 93.9 °F 100.3 °F 70.0 °F 46% 29.95 in 10.0 mi Calm Calm - N/A   Mostly Cloudy
3:56 PM 95.0 °F 102.5 °F 71.1 °F 46% 29.94 in 10.0 mi Variable 4.6 mph - N/A   Partly Cloudy
4:56 PM 93.9 °F 100.3 °F 70.0 °F 46% 29.93 in 10.0 mi SSW 4.6 mph - N/A   Scattered Clouds
5:56 PM 93.9 °F 99.1 °F 69.1 °F 44% 29.92 in 10.0 mi Variable 3.5 mph - N/A   Clear
6:56 PM 93.0 °F 100.1 °F 71.1 °F 49% 29.91 in 10.0 mi Calm Calm - N/A   Clear
7:56 PM 87.1 °F 97.3 °F 75.9 °F 69% 29.92 in 10.0 mi Calm Calm - N/A   Clear
8:56 PM 82.9 °F 90.8 °F 75.9 °F 79% 29.94 in 10.0 mi Calm Calm - N/A   Partly Cloudy
9:56 PM 81.0 °F 87.3 °F 75.9 °F 85% 29.95 in 10.0 mi Calm Calm - N/A   Clear
10:56 PM 80.1 °F 85.1 °F 75.0 °F 85% 29.95 in 5.0 mi Calm Calm - N/A   Haze
11:56 PM 81.0 °F 86.7 °F 75.0 °F 82% 29.95 in 10.0 mi Variable 4.6 mph - N/A   Clear